Location: Cutler
(25.6150°N, 80.3110°W)
Time: 09:35:59
(UTC-05:00)

Vanguard 1 Rocket - Visible Passes

Search period start: 21 January 2018 00:00
Search period end: 31 January 2018 00:00
Orbit: 656 x 4222 km, 34.3° (Epoch: 20 January)

Date Brightness Start Highest point End Pass type
(mag) Time Alt. Az. Time Alt. Az. Time Alt. Az.
21 Jan 11.2 02:27:39 10° SSW 02:45:17 26° SE 02:57:41 10° E visible
21 Jan 9.8 04:55:50 10° SW 05:15:59 61° SSE 05:26:21 10° ENE visible
22 Jan 11.6 01:17:39 10° S 01:30:36 16° SE 01:41:22 10° ESE visible
22 Jan 10.4 03:41:21 10° SSW 04:02:38 46° SSE 04:14:56 10° E visible
22 Jan 9.1 06:13:53 10° WSW 06:31:50 85° NNW 06:40:34 10° ENE visible
23 Jan 10.9 02:28:05 10° SSW 02:48:38 34° SE 03:02:25 10° E visible
23 Jan 9.6 04:58:03 10° SW 05:19:11 74° SSE 05:29:53 10° ENE visible
24 Jan 11.3 01:16:36 10° S 01:34:05 23° SE 01:47:50 10° E visible
24 Jan 10.1 03:51:09 25° SSW 04:05:49 57° SSE 04:18:41 10° ENE visible
24 Jan 9.1 06:16:55 10° WSW 06:35:07 75° NNW 06:44:00 10° ENE visible
25 Jan11.800:29:13ESE00:29:13ESE00:07:33SSEvisible
25 Jan 10.7 02:46:45 39° S 02:51:48 43° SE 03:06:34 10° E visible
25 Jan 9.5 05:04:15 17° WSW 05:22:21 86° SSE 05:33:20 10° ENE visible
26 Jan 11.1 01:41:27 29° SE 01:41:27 29° SE 01:52:58 10° E visible
26 Jan 10.0 03:58:54 40° SW 04:08:56 68° SSE 04:22:13 10° ENE visible
26 Jan 9.2 06:20:10 10° W 06:38:26 67° NNW 06:47:27 10° ENE visible
27 Jan 11.7 00:35:40 11° ESE 00:35:40 11° ESE 00:36:25 10° ESE visible
27 Jan 10.4 02:53:05 52° SSE 02:54:50 52° SE 03:10:23 10° ENE visible
27 Jan 9.5 05:10:29 24° WSW 05:25:32 83° NNW 05:36:45 10° ENE visible
28 Jan 11.0 01:46:56 33° ESE 01:46:56 33° ESE 01:57:22 10° E visible
28 Jan 9.8 04:04:18 51° SW 04:11:58 79° SSE 04:25:39 10° ENE visible
28 Jan 9.3 06:23:33 10° W 06:41:50 61° NNW 06:50:56 10° ENE visible
29 Jan 11.6 00:40:32 13° E 00:40:32 13° E 00:42:16 10° E visible
29 Jan 10.2 02:57:53 63° SE 02:57:53 63° SE 03:13:58 10° ENE visible
29 Jan 9.6 05:15:15 28° WSW 05:28:44 75° NNW 05:40:09 10° ENE visible
30 Jan 10.8 01:51:17 37° ESE 01:51:17 37° ESE 02:01:19 10° ENE visible
30 Jan 9.8 04:08:37 58° WSW 04:15:01 89° SSE 04:29:02 10° ENE visible
30 Jan 9.4 06:27:02 10° W 06:45:19 58° N 06:54:30 10° ENE visible
